{"data":{"norad_id":66829,"intl_designator":"2025-280J","name":"STARLINK-36084","alt_names":[],"object_type":"PAYLOAD","status":"ACTIVE","operator":null,"country":"US","launch_date":"2025-12-02","launch_site_code":"AFWTR","launch_vehicle":null,"mission":null,"orbit_class":"UNKNOWN","rcs_meters":null,"size_class":null,"mass_kg":null,"dimensions":null,"purposes":["comms"],"wikipedia_slug":null,"has_3d_model":false,"image_url":null,"decayed_at":null,"tle_current":{"epoch":"2026-09-20T08:04:27.273792Z","epoch_age_seconds":98202,"freshness":"FRESH","line1":"1 66829U 25280J   26263.33642678  .00004034  00000+0  34550-3 0  9996","line2":"2 66829  69.9995 203.6174 0002960 264.2070  95.8751 14.98348928 45236","mean_motion":14.98348928,"eccentricity":0.000296,"inclination_deg":69.9995,"raan_deg":203.6174,"arg_perigee_deg":264.207,"mean_anomaly_deg":95.8751,"bstar":0.0003455,"rev_number":4523,"period_min":96.105785047153,"perigee_km":569.94011851193,"apogee_km":574.05459805203,"semimajor_km":6950.134358282,"source":"CELESTRAK","updated_at":"2026-09-21T09:00:36.021164Z"}}}